Vorticity
3 3 3 3 4 5 6 5 4 4 5 6 6 8 7 4 4 4 4 4 4 5 3 3 3 2 3 2 3 3 4 5 6 6 4 4 5 6 8 8 7 6 4 5 8 10 10 11 11 11 10 9 10 9 9 9 10 10 11 11 11 11 10 10 9 10 9 7 8 8 6 6 5 6 7 6 6 7 7 7 7 8 8 8 9 9 10 11 12 13 14 14 15 14 15 15 14
4 4 3 4 5 5 5 5 4 4 4 4 4 5 4 3 4 4 4 5 4 5 4 4 3 3 3 2 4 4 6 6 4 4 4 5 5 7 7 6 6 6 5 7 11 12 11 11 11 10 9 9 9 9 9 9 9 9 9 10 9 9 8 8 8 7 8 7 6 7 7 6 6 5 6 6 6 6 6 7 6 7 6 7 7 7 8 8 9 10 11 12 13 12 13 14 14
5 5 4 5 5 5 5 4 4 4 4 4 3 2 3 3 3 3 3 3 3 4 4 4 3 3 4 3 4 4 4 4 4 5 5 6 6 7 6 5 5 7 8 10 12 12 11 11 11 9 9 9 9 9 9 8 8 8 7 7 6 6 6 5 6 5 5 6 5 6 6 5 5 5 5 5 5 5 5 6 6 6 6 6 6 6 6 7 7 8 9 10 11 11 11 13 12
7 6 5 5 5 5 4 4 5 4 6 6 5 4 4 3 3 3 3 4 4 4 3 3 3 3 3 3 3 4 4 3 6 7 7 7 7 6 5 4 6 10 11 11 11 12 11 10 10 8 8 8 7 7 7 6 6 5 5 4 4 3 3 3 3 3 3 3 3 4 4 4 3 3 3 4 3 4 4 4 4 4 5 5 5 5 6 6 6 6 7 8 10 9 10 12 12
9 8 6 6 5 6 5 6 6 7 7 6 5 5 3 3 3 4 5 4 4 4 3 2 2 3 3 4 4 5 6 6 8 8 8 7 7 6 4 5 8 12 12 11 12 11 10 8 7 7 7 6 6 5 4 4 3 3 3 3 3 2 2 2 2 3 3 2 3 3 3 3 3 3 3 3 3 3 3 3 2 2 3 3 4 4 4 5 5 5 6 6 7 8 7 9 11
8 8 7 6 6 6 6 7 9 9 8 6 5 5 4 4 4 5 4 3 4 4 3 3 3 3 3 3 4 7 8 8 8 8 7 7 6 5 5 8 11 13 11 10 12 10 8 6 6 6 5 4 4 3 3 2 2 3 3 2 2 2 2 2 2 2 2 2 2 2 3 3 3 3 3 3 3 3 3 3 3 3 3 3 3 3 3 3 4 4 4 5 5 6 5 5 7
7 7 7 7 7 7 7 9 9 8 7 5 4 5 4 4 4 4 5 5 5 4 3 4 3 3 3 4 5 9 9 7 7 7 6 6 4 5 8 12 13 12 10 11 10 8 6 5 5 5 4 3 3 2 2 2 2 2 2 2 1 2 2 1 1 1 2 1 1 2 1 2 2 2 2 2 2 2 2 3 3 3 3 3 3 3 3 3 3 3 3 3 3 4 4 4 4
6 7 7 7 8 7 8 9 8 7 6 5 5 5 4 3 3 4 7 6 5 5 5 5 4 5 5 7 9 9 8 7 7 6 6 5 5 9 13 14 13 11 10 10 7 6 5 5 5 4 3 3 3 2 2 1 1 2 1 1 1 1 1 1 1 1 1 1 1 1 1 1 1 1 1 1 1 1 2 2 2 3 3 3 3 3 3 3 3 3 3 3 3 3 3 3 2
6 6 6 6 7 7 8 8 7 7 5 5 5 4 3 3 4 6 7 6 5 5 5 5 6 7 7 9 10 7 7 7 6 6 6 6 10 13 14 12 11 9 9 8 6 5 4 4 4 3 3 2 2 1 1 2 1 1 1 1 1 1 1 1 1 1 1 1 1 1 1 0 0 1 1 1 1 1 1 1 1 1 2 2 2 2 2 2 3 3 3 3 3 3 3 3 2
7 6 6 6 7 6 7 6 6 6 4 5 5 3 2 4 6 7 6 6 6 6 6 6 7 8 8 9 7 4 6 7 7 7 7 10 13 14 11 10 10 8 7 7 5 4 4 4 4 3 2 2 2 1 1 1 1 1 2 1 1 2 2 2 2 2 2 1 1 1 1 1 1 1 1 1 1 1 0 0 1 0 0 1 1 1 2 2 2 2 2 3 3 3 3 3 1
7 7 7 8 8 7 7 7 7 6 5 6 5 4 5 6 7 6 6 6 7 7 8 8 7 7 7 8 5 4 6 8 10 10 12 12 12 12 9 8 8 8 5 5 4 4 4 3 4 4 3 3 3 3 2 2 1 2 2 2 2 2 2 2 3 2 2 2 2 2 2 2 2 1 1 1 1 1 0 0 1 1 0 0 1 1 1 1 1 1 2 2 2 2 3 2 1
9 8 8 9 8 8 8 7 7 7 7 7 6 7 7 7 7 7 7 7 8 8 9 9 9 8 8 8 7 7 7 9 12 13 13 11 10 10 9 9 7 6 4 3 3 4 3 3 3 3 3 3 4 3 3 3 2 2 2 2 3 3 3 3 3 3 3 3 3 3 3 3 3 2 2 2 2 1 1 1 1 1 1 1 1 1 1 1 1 1 1 1 1 2 2 2 1
9 8 8 9 9 9 9 8 8 6 7 9 8 8 8 7 8 8 8 8 9 9 9 9 9 8 8 7 7 7 6 8 11 11 10 9 9 9 8 7 6 4 4 4 5 4 3 3 3 3 3 4 4 3 3 3 3 3 3 3 3 3 3 4 3 3 3 3 3 3 3 3 3 3 3 3 3 3 2 2 2 1 1 1 1 1 1 1 1 1 1 1 1 1 1 1 2
9 9 9 9 10 10 10 9 8 6 7 11 9 7 8 8 8 8 9 8 8 8 7 7 7 7 8 6 6 6 5 6 8 8 8 7 8 8 7 6 5 3 3 3 4 5 5 4 4 3 4 4 5 5 4 4 4 4 4 4 4 3 3 4 3 3 3 4 3 3 3 3 3 3 3 3 3 3 3 3 3 3 2 2 2 2 2 2 2 1 1 1 1 0 -0 1 1
9 9 9 8 9 9 9 8 8 6 5 9 9 7 7 7 8 7 7 6 5 7 6 5 7 7 7 6 6 6 4 5 6 7 8 8 7 6 6 5 4 3 2 1 1 3 3 3 3 2 2 3 4 4 5 5 5 5 5 5 4 4 4 4 3 3 3 3 4 4 4 3 3 3 3 3 3 3 3 4 4 4 4 3 3 2 2 2 2 2 2 1 2 1 1 2 1
10 10 9 8 8 7 8 7 7 7 5 7 9 9 10 8 7 6 6 6 5 6 6 5 5 4 5 6 6 7 6 7 8 8 8 8 7 6 6 6 4 4 3 2 2 1 1 2 1 2 2 2 2 2 2 3 3 4 4 4 3 4 4 4 4 4 3 3 4 4 4 4 4 3 3 3 3 3 3 3 3 3 3 3 4 3 3 3 2 2 2 2 2 2 2 3 2
9 8 7 7 8 7 9 8 7 7 6 7 9 9 9 8 8 7 6 7 6 7 7 4 4 3 4 5 6 7 7 8 8 9 9 8 8 7 6 5 4 3 3 4 5 5 5 6 6 6 5 4 3 2 2 2 3 3 3 3 4 4 4 5 5 5 5 4 4 3 3 4 4 4 4 3 3 3 2 3 3 3 4 3 3 4 4 4 4 4 3 3 3 2 2 3 3
6 6 7 8 9 9 9 7 7 6 6 7 8 8 7 7 8 7 8 10 9 7 7 6 7 9 8 7 8 9 9 9 10 10 11 11 10 10 10 9 8 6 5 3 3 3 6 8 10 9 7 6 5 5 6 6 6 6 6 5 5 5 5 5 5 5 5 5 4 4 4 4 4 4 4 4 4 4 3 3 3 3 3 3 3 3 4 4 4 5 4 4 3 3 3 3 3
8 8 8 8 8 9 7 6 8 6 6 8 8 7 7 8 7 7 9 10 9 7 10 13 13 13 13 11 10 9 9 9 9 9 10 10 10 11 12 13 13 13 12 11 10 9 7 5 4 4 6 6 7 8 8 8 8 8 7 7 6 6 6 5 5 5 5 6 6 5 5 5 5 4 4 5 4 4 4 4 4 4 3 3 3 3 3 4 4 4 5 5 4 4 4 4 4
7 6 5 7 6 7 7 7 9 8 9 10 9 8 10 10 8 9 9 7 9 9 9 8 8 10 12 11 9 9 8 7 6 6 6 7 7 7 8 9 9 11 12 13 15 16 14 10 7 6 5 5 5 5 5 5 6 6 7 7 7 7 6 6 6 6 6 6 7 6 5 5 5 5 5 5 5 5 5 5 4 4 5 4 4 4 4 4 4 4 4 5 5 5 5 5 5
6 7 7 10 10 10 10 11 12 11 11 9 8 9 11 12 9 8 7 6 9 11 7 3 3 4 6 7 7 7 7 7 6 6 6 6 8 8 8 8 8 8 8 8 8 9 11 12 13 13 10 9 8 7 7 6 6 6 6 7 7 6 6 6 7 7 7 6 7 7 6 5 5 6 5 5 6 5 5 5 5 5 6 6 6 6 5 5 4 4 4 5 5 6 6 6 6
9 10 11 12 13 13 13 12 12 11 10 8 7 8 9 9 8 7 6 5 4 5 6 5 4 4 6 9 9 8 8 9 8 8 8 8 9 9 9 9 9 9 9 9 9 8 7 8 8 10 11 13 12 11 10 8 8 8 7 7 7 7 7 7 9 10 10 9 7 7 7 7 6 6 6 6 6 6 6 5 6 5 5 6 6 6 6 6 6 5 5 5 5 6 6 6 6
9 10 10 10 9 9 9 8 7 7 6 6 5 4 4 5 7 7 5 6 6 6 8 8 9 9 10 11 11 12 12 12 12 12 11 11 10 10 11 10 10 10 10 11 12 12 12 11 10 9 10 12 14 14 12 9 8 6 5 6 6 7 6 5 7 9 10 9 8 8 8 9 9 8 7 7 6 6 6 6 6 6 5 5 6 6 6 6 6 6 7 7 7 6 6 6 5
8 8 6 5 4 4 5 5 5 5 6 6 6 5 6 8 10 10 9 10 11 12 13 12 12 12 11 11 12 13 14 14 14 14 13 13 13 12 12 11 11 10 10 11 10 11 12 13 13 12 12 10 11 13 14 17 17 15 12 9 7 7 5 5 5 5 6 8 9 8 7 9 9 8 8 7 7 7 7 7 7 7 7 6 6 7 7 7 7 7 7 7 7 7 7 6 6
7 8 6 6 7 7 7 7 8 8 9 9 9 10 11 12 11 11 13 13 12 12 11 12 12 12 12 11 11 10 10 11 11 12 12 12 13 13 13 13 13 12 11 11 10 10 10 11 12 13 14 12 11 10 10 13 17 22 22 20 17 11 9 9 8 6 7 7 8 8 8 8 8 9 9 8 9 9 9 8 8 9 8 7 7 8 8 8 8 7 8 8 8 8 8 7 7
6 6 7 9 9 9 9 10 10 11 11 11 12 13 11 10 9 9 10 9 8 8 7 8 8 8 7 6 6 5 5 6 7 7 8 9 10 10 11 12 13 14 14 14 14 14 13 13 13 13 14 14 14 13 12 11 11 13 15 20 23 20 18 15 10 9 8 8 8 9 9 8 8 9 9 9 9 9 8 8 8 8 9 9 8 8 8 8 8 8 8 8 9 9 8 8 8
7 9 10 11 10 10 10 11 10 9 8 8 9 9 6 6 6 7 7 6 5 5 6 5 5 5 4 4 4 4 4 4 4 5 6 6 7 7 7 9 9 10 12 13 14 15 15 13 11 9 8 8 9 9 10 10 11 10 8 11 17 19 21 20 17 12 9 10 10 10 9 8 9 9 8 9 8 8 7 7 7 8 8 8 8 8 7 8 8 8 8 8 8 8 8 8 8
11 12 11 9 9 7 7 6 6 6 5 4 5 5 5 5 6 8 7 5 5 6 6 5 6 6 6 6 6 5 5 5 5 5 5 5 5 6 5 6 7 8 8 10 12 13 13 12 9 7 7 9 9 8 6 5 6 7 5 5 7 10 12 17 21 19 16 14 9 6 7 7 8 8 8 8 8 7 7 7 7 7 7 7 8 8 7 7 8 8 8 8 7 8 8 8 8
10 10 6 6 5 3 5 5 5 6 6 5 6 6 7 7 7 8 6 5 6 6 7 8 8 8 8 8 6 5 5 6 6 5 5 6 6 6 5 4 5 5 5 8 9 10 11 9 6 6 8 10 10 10 9 7 4 2 1 2 3 4 5 7 12 16 18 19 14 10 7 6 6 6 7 7 6 6 6 7 7 7 7 7 7 7 7 7 7 8 8 8 9 9 9 9 9
6 4 2 5 4 4 6 6 7 7 6 7 8 7 7 8 7 6 4 6 7 7 7 7 7 8 8 6 5 4 5 7 7 6 6 5 5 5 5 5 5 4 4 6 8 9 9 7 6 5 5 6 6 6 8 9 7 3 2 3 3 4 5 5 7 8 10 14 17 17 15 12 10 7 5 3 2 3 4 5 5 5 5 5 6 6 7 7 7 8 8 8 8 8 8 8 8
6 5 5 6 5 6 6 5 6 6 6 7 6 7 7 6 5 4 5 6 7 8 8 8 8 8 7 6 6 6 8 8 7 6 5 4 4 5 6 7 7 6 5 6 7 7 6 5 5 4 4 4 3 2 5 8 8 7 5 5 5 5 6 5 6 6 6 7 9 13 16 17 16 13 9 6 5 6 6 5 5 5 6 6 7 7 7 8 8 9 9 9 9 9 9 9 9
7 8 8 8 6 5 6 6 5 4 4 5 4 5 6 5 5 6 7 8 8 8 8 8 8 7 7 7 9 11 11 8 6 4 3 3 3 3 5 6 7 7 7 8 9 7 5 4 4 3 3 3 3 3 3 4 5 7 6 5 5 5 6 6 5 5 5 6 5 6 10 12 15 15 14 12 11 11 11 12 13 14 15 15 14 14 14 13 13 13 13 12 11 12 11 11 10
7 6 6 7 7 4 2 4 8 8 7 6 6 5 5 6 7 8 9 10 9 7 7 7 7 7 7 9 12 12 8 5 5 5 4 4 4 4 5 5 5 6 7 9 9 8 5 4 4 3 2 2 4 4 4 4 3 4 5 5 5 4 4 6 7 6 4 5 5 6 8 10 11 11 10 10 10 11 12 14 15 15 16 16 15 16 17 17 16 15 15 14 13 12 13 13 12
2 3 5 7 8 7 5 6 8 9 9 8 7 5 6 7 8 10 10 9 7 5 6 5 6 7 7 14 13 2 2 5 6 7 7 7 8 8 9 10 10 11 12 12 12 11 6 3 4 2 -0 2 6 6 6 6 5 3 3 4 5 5 5 6 8 9 8 7 4 6 8 8 7 5 5 6 7 8 8 7 7 10 10 10 11 13 14 14 14 13 12 13 12 12 12 12 12
8 8 9 8 8 12 12 11 10 7 7 6 6 7 7 9 9 9 7 6 5 5 6 5 5 3 5 19 11 -8 -3 6 4 7 9 10 11 12 13 14 15 14 13 12 12 12 8 4 3 1 -2 0 5 7 6 7 7 6 4 4 4 5 5 6 7 7 9 8 6 7 7 7 6 3 2 4 7 8 6 3 4 9 8 6 7 8 9 11 13 12 12 12 12 12 13 14 15
13 12 13 11 12 14 10 10 10 8 7 5 7 7 6 6 5 4 5 7 9 8 8 6 5 4 5 13 5 -7 0 6 4 6 6 7 9 9 10 10 10 9 8 8 9 9 9 6 3 2 0 -0 2 4 6 6 6 7 7 7 6 6 6 7 7 9 12 11 9 8 7 7 4 1 0 2 6 8 5 4 7 10 8 5 5 4 7 12 14 12 10 11 12 13 14 15 16
11 12 13 9 10 11 7 7 8 7 7 5 4 2 0 2 1 5 9 10 10 9 9 6 7 9 8 6 2 -0 3 5 5 6 6 6 6 5 5 5 4 5 6 7 8 8 9 8 5 4 2 2 2 3 4 5 6 6 6 7 6 6 6 6 8 13 18 16 12 11 12 11 7 5 4 3 6 6 5 10 9 6 8 9 6 4 7 11 13 12 10 9 9 10 10 10 10
11 10 9 5 4 7 6 6 6 4 3 3 4 4 5 7 8 11 10 8 8 7 8 10 10 9 5 2 2 5 6 7 8 10 10 11 10 10 9 9 9 9 10 10 10 10 9 8 6 6 4 3 3 5 5 6 7 6 6 8 7 6 6 5 5 8 10 7 5 5 6 8 7 7 5 3 5 3 8 12 1 -4 4 7 2 0 5 7 8 10 9 8 8 8 7 6 6
9 5 5 7 7 8 9 8 5 4 5 8 10 11 11 13 13 11 8 6 5 5 7 9 7 4 3 5 7 8 9 11 12 13 14 14 13 12 9 9 9 9 10 10 11 13 13 12 9 7 6 6 5 6 4 3 5 6 6 7 6 4 4 4 3 4 4 2 2 3 3 4 6 7 8 5 -1 -0 8 4 -10 -5 5 4 1 1 6 9 10 10 8 7 7 6 6 6 5
5 5 6 9 10 9 7 6 5 5 8 11 8 6 7 9 8 5 4 2 0 2 4 2 0 1 3 5 5 5 7 9 10 11 12 12 10 7 4 3 2 4 6 7 8 8 9 12 12 11 10 11 12 11 9 7 8 5 2 3 4 3 3 4 3 2 4 4 5 6 5 5 5 6 7 6 5 7 8 -5 -13 -1 7 5 5 6 8 11 13 12 10 9 8 6 5 5 6
4 7 7 7 8 6 1 2 4 5 6 6 3 4 5 3 2 1 -0 -1 -1 0 1 1 2 4 5 6 7 7 7 7 8 8 7 7 5 2 2 2 2 3 5 8 10 10 8 7 8 10 8 7 9 10 10 9 6 1 -2 -0 3 3 4 4 3 4 4 5 6 5 4 4 3 4 7 12 16 9 -3 -11 -8 2 7 8 9 7 7 10 11 12 11 12 12 10 8 7 7
6 8 6 6 5 3 2 3 5 5 5 5 5 10 11 6 2 2 2 3 5 4 4 5 7 7 8 8 8 7 7 7 7 7 7 7 7 7 6 6 5 6 7 10 12 15 16 14 11 9 6 4 2 1 1 -1 -3 -3 -0 3 3 3 5 4 4 4 4 5 6 4 3 3 3 3 1 -1 -1 -6 -10 -6 -1 3 6 8 9 7 5 7 10 10 11 12 12 13 13 11 9
7 7 6 6 3 2 5 5 5 6 5 6 6 8 11 10 4 2 5 7 7 7 8 8 9 9 10 8 7 7 7 8 8 9 10 10 10 9 7 5 5 7 9 11 12 13 15 16 16 15 12 10 5 1 -2 -5 -7 -8 -3 3 5 5 7 6 5 5 5 5 5 4 3 4 6 6 4 -1 -4 -3 2 5 4 4 5 6 7 5 5 8 9 9 10 11 11 10 12 14 13
7 5 5 5 3 4 5 4 5 5 5 7 7 7 8 9 7 5 7 8 8 8 9 10 11 10 9 8 9 9 10 11 12 13 12 11 10 9 9 9 9 10 11 12 14 14 14 14 14 16 16 16 14 10 6 3 1 -2 -2 2 5 7 8 8 8 6 5 5 5 5 5 5 5 5 6 6 5 4 3 4 6 5 3 5 5 3 5 8 9 9 9 9 10 10 11 13 13
4 4 5 4 4 5 3 3 5 4 6 8 7 8 7 6 8 9 9 9 10 10 10 11 11 9 9 9 9 10 12 14 15 15 16 15 15 14 14 14 14 15 16 17 17 18 18 17 16 16 16 17 19 19 18 15 11 8 6 3 2 4 5 6 8 8 7 6 6 6 5 6 7 8 9 6 3 4 4 5 6 5 4 5 4 3 3 6 8 8 8 9 10 12 12 11 10
4 4 3 3 4 3 1 3 4 2 4 5 5 6 5 6 9 9 10 13 13 12 11 10 9 9 9 7 8 12 15 16 16 16 17 16 16 15 14 15 17 18 20 22 24 25 26 26 25 23 20 17 16 17 20 20 18 15 13 11 9 8 7 7 7 7 8 9 7 7 6 7 6 4 6 6 5 5 3 1 1 2 5 5 3 2 3 4 5 2 1 2 2 4 8 8 9
3 2 2 3 3 1 2 4 2 3 5 7 8 4 3 9 10 9 13 15 11 7 7 7 7 7 6 7 12 16 18 17 15 15 15 16 16 16 18 20 22 23 25 27 30 33 33 34 33 32 31 28 23 20 18 19 20 19 17 16 14 13 12 11 9 8 11 15 12 11 11 11 12 9 6 3 3 3 1 -1 0 2 4 6 4 3 3 3 1 -2 -2 -1 -2 -1 3 7 8
3 3 3 4 2 1 5 5 3 6 7 9 7 2 5 9 8 12 14 8 3 4 6 7 8 7 7 11 17 18 17 15 15 16 17 19 20 22 24 24 25 29 32 35 39 42 44 46 47 46 44 40 36 31 26 22 20 20 20 17 14 12 10 10 9 6 10 19 19 15 12 10 13 18 18 16 13 10 9 9 12 13 13 13 9 4 4 3 1 1 1 1 3 3 3 6 9
4 4 4 5 4 6 7 4 5 5 5 8 6 3 9 7 4 11 8 0 2 6 7 8 9 9 10 14 17 16 16 17 18 20 21 23 25 26 27 29 35 41 45 47 47 49 51 52 52 54 54 52 48 45 43 39 33 30 28 25 22 18 14 13 12 7 4 10 18 19 15 11 9 8 7 10 13 14 14 14 13 14 14 12 9 5 3 1 1 4 3 1 5 6 5 5 7
5 5 7 8 8 9 8 7 10 6 3 8 7 6 9 7 8 9 3 3 8 7 8 9 9 10 12 16 18 17 20 21 22 23 25 28 29 31 35 40 43 43 40 36 31 30 31 31 30 32 34 37 40 45 50 53 52 51 48 43 38 32 27 23 20 17 7 -1 4 14 17 14 12 11 7 3 1 2 7 12 14 15 15 13 9 5 -1 -4 -0 4 4 4 4 5 8 6 3
5 6 6 4 5 7 6 9 10 6 2 4 8 9 9 10 13 9 5 9 11 10 13 11 8 12 17 19 19 19 21 23 25 28 29 32 34 36 39 37 31 25 19 16 16 19 21 22 22 21 19 17 16 18 25 32 38 44 49 52 51 47 42 33 26 24 20 6 -5 -3 7 11 8 7 9 10 8 5 2 1 -1 2 8 12 11 6 3 5 8 6 5 7 6 5 9 9 5
4 6 3 3 5 4 3 4 4 3 1 3 7 7 7 12 12 6 8 12 13 13 12 9 11 18 21 21 19 20 23 26 30 32 34 36 35 30 25 19 14 11 11 12 14 19 22 23 25 26 27 25 19 13 11 14 16 20 25 32 38 42 45 42 35 28 27 24 12 -3 -7 0 5 2 -1 2 7 11 12 8 2 -3 -3 1 5 5 7 11 13 9 5 6 7 6 8 10 9
4 4 4 5 5 3 5 7 5 1 1 4 6 4 9 16 11 7 12 13 11 11 10 13 18 20 20 19 18 23 29 32 33 35 35 31 21 13 9 9 9 9 11 12 13 14 16 18 20 23 25 27 28 26 21 19 16 14 16 19 23 29 37 44 46 39 31 27 26 19 5 -1 3 4 -0 -4 -5 -1 6 12 14 12 6 4 5 7 10 10 9 8 6 7 9 9 7 6 7
4 5 6 5 3 4 10 12 9 6 5 6 4 3 12 16 8 8 13 11 10 12 15 20 20 17 19 19 22 30 34 33 33 34 30 19 10 7 8 10 11 10 9 8 8 8 9 9 11 14 17 20 25 26 25 25 24 24 25 26 27 28 31 36 43 48 45 35 28 24 18 9 4 6 7 5 3 1 2 3 6 8 7 6 5 7 12 12 9 5 2 3 5 9 10 6 4
5 5 3 2 2 6 9 6 5 6 6 6 2 3 12 12 6 9 12 9 11 14 17 20 17 17 21 22 27 34 35 33 30 25 17 10 7 9 10 11 10 10 9 7 5 4 5 6 7 10 14 18 21 21 20 19 20 21 22 21 22 23 25 26 30 37 45 50 48 40 33 22 13 12 16 19 20 18 15 11 8 6 5 2 -2 -1 5 12 16 12 7 5 -0 -2 3 7 8
5 4 2 2 3 5 5 1 -1 2 5 6 2 2 10 11 7 10 11 9 13 15 15 17 20 21 24 27 31 33 34 31 23 14 8 6 7 10 12 13 10 10 10 7 5 3 3 5 7 12 16 17 19 20 19 18 16 15 14 12 12 13 15 16 18 23 28 37 45 50 51 46 36 28 23 23 24 24 22 19 15 13 12 11 6 -0 -3 4 17 21 19 21 16 4 -3 1 11
4 4 4 3 3 6 7 3 2 5 8 8 3 3 9 10 10 13 10 8 14 15 14 20 24 24 26 29 30 32 33 25 13 7 6 6 8 10 12 11 10 12 12 9 7 4 3 5 8 13 16 15 16 17 18 19 18 17 16 15 14 13 13 12 12 13 16 19 23 29 36 41 44 41 34 29 26 23 23 21 19 16 14 14 17 16 4 -4 6 16 18 22 25 21 7 -1 7
5 5 3 2 5 9 9 7 7 6 4 3 1 3 8 10 13 13 8 8 16 16 18 24 25 26 28 28 31 34 28 14 6 6 7 9 11 13 14 11 9 11 11 11 10 6 6 9 9 11 12 11 12 13 15 17 17 17 17 16 16 15 15 15 14 13 15 18 20 22 24 26 31 34 34 33 30 27 26 25 24 22 18 13 15 22 17 -0 -5 4 12 15 18 22 21 11 7
Height
5816 5816 5816 5815 5815 5814 5814 5814 5813 5813 5812 5812 5812 5810 5809 5808 5806 5805 5803 5803 5802 5802 5801 5800 5800 5800 5799 5798 5798 5797 5796 5795 5793 5791 5789 5789 5789 5789 5788 5787 5786 5784 5784 5783 5782 5781 5780 5779 5778 5777 5777 5776 5775 5775 5775 5774 5774 5773 5773 5773 5773 5772 5772 5772 5772 5772 5772 5771 5771 5771 5771 5771 5771 5771 5771 5771 5771 5771 5771 5771 5771 5771 5771 5771 5771 5771 5771 5771 5771 5771 5771 5771 5771 5771 5771 5772 5773
5815 5815 5814 5814 5814 5813 5813 5812 5811 5811 5811 5811 5809 5807 5806 5805 5803 5802 5801 5800 5800 5800 5799 5798 5797 5797 5796 5795 5794 5794 5794 5792 5790 5787 5786 5785 5784 5784 5784 5784 5783 5781 5780 5779 5778 5777 5776 5775 5774 5774 5773 5773 5772 5772 5772 5771 5771 5771 5770 5770 5770 5770 5770 5770 5770 5769 5769 5769 5769 5769 5769 5768 5768 5769 5769 5769 5769 5769 5769 5769 5769 5768 5768 5768 5768 5768 5768 5768 5768 5768 5768 5768 5768 5768 5768 5769 5769
5814 5813 5813 5812 5812 5811 5811 5810 5810 5810 5809 5808 5807 5804 5803 5802 5801 5800 5799 5798 5797 5797 5796 5795 5794 5794 5793 5792 5791 5790 5791 5789 5786 5784 5783 5781 5779 5780 5780 5780 5779 5778 5776 5775 5774 5773 5773 5772 5771 5771 5770 5770 5770 5769 5769 5769 5769 5768 5768 5768 5767 5767 5767 5767 5767 5767 5767 5767 5767 5767 5767 5766 5766 5766 5766 5766 5766 5766 5766 5766 5766 5766 5766 5766 5766 5766 5766 5766 5766 5766 5766 5766 5766 5766 5766 5766 5766
5813 5812 5812 5811 5810 5810 5809 5809 5808 5808 5807 5805 5804 5802 5801 5799 5798 5797 5796 5796 5795 5794 5793 5793 5792 5791 5790 5789 5788 5787 5786 5785 5783 5781 5779 5777 5775 5775 5776 5775 5775 5774 5773 5771 5770 5770 5769 5769 5769 5768 5768 5767 5767 5767 5767 5766 5766 5766 5765 5765 5765 5765 5765 5764 5764 5764 5764 5764 5764 5764 5764 5764 5764 5764 5764 5764 5764 5764 5764 5764 5764 5764 5764 5764 5764 5764 5764 5764 5764 5764 5765 5765 5765 5764 5764 5764 5764
5812 5811 5810 5809 5809 5808 5808 5807 5807 5806 5804 5802 5801 5800 5798 5797 5796 5795 5794 5793 5792 5791 5790 5789 5789 5788 5787 5786 5785 5783 5781 5780 5779 5777 5775 5774 5773 5772 5772 5772 5771 5770 5769 5768 5767 5766 5766 5766 5766 5765 5765 5765 5765 5765 5764 5764 5764 5763 5763 5763 5762 5762 5762 5762 5762 5762 5761 5761 5761 5762 5762 5761 5762 5761 5762 5762 5762 5762 5762 5762 5762 5762 5762 5762 5762 5762 5762 5762 5762 5762 5762 5762 5762 5762 5762 5762 5762
5810 5809 5809 5808 5807 5807 5806 5806 5805 5803 5802 5800 5798 5797 5795 5794 5793 5793 5792 5790 5789 5788 5787 5786 5785 5785 5784 5783 5781 5779 5777 5776 5775 5773 5771 5771 5770 5769 5768 5768 5767 5767 5766 5765 5764 5763 5763 5762 5762 5762 5762 5762 5762 5762 5761 5761 5761 5761 5760 5760 5760 5759 5759 5759 5759 5759 5759 5758 5758 5759 5759 5759 5758 5758 5758 5759 5759 5759 5759 5759 5759 5759 5759 5759 5759 5759 5759 5759 5759 5759 5760 5760 5760 5760 5759 5759 5760
5808 5807 5807 5806 5806 5805 5804 5804 5803 5801 5799 5797 5796 5795 5793 5792 5791 5791 5790 5788 5787 5785 5784 5783 5782 5781 5780 5779 5778 5775 5773 5772 5770 5769 5768 5768 5767 5766 5765 5764 5764 5764 5763 5762 5761 5760 5760 5759 5759 5759 5759 5759 5759 5759 5758 5758 5758 5757 5757 5757 5757 5756 5756 5756 5756 5756 5756 5755 5755 5755 5755 5755 5755 5755 5755 5755 5755 5755 5755 5755 5755 5755 5755 5755 5755 5755 5756 5756 5756 5756 5756 5757 5757 5757 5757 5756 5756
5806 5806 5805 5804 5804 5803 5802 5801 5800 5798 5797 5795 5793 5793 5791 5790 5789 5788 5787 5786 5785 5783 5782 5780 5778 5778 5777 5775 5774 5771 5770 5768 5766 5765 5765 5765 5764 5763 5762 5761 5761 5760 5760 5759 5758 5757 5757 5756 5756 5756 5756 5756 5755 5755 5755 5755 5754 5754 5754 5754 5753 5753 5753 5753 5753 5752 5752 5752 5752 5752 5751 5752 5751 5751 5751 5751 5751 5751 5751 5751 5751 5751 5751 5752 5752 5752 5752 5752 5752 5753 5753 5753 5754 5754 5754 5753 5753
5805 5804 5803 5802 5802 5801 5800 5799 5798 5796 5794 5792 5791 5790 5789 5787 5787 5786 5785 5783 5782 5780 5779 5777 5775 5774 5773 5772 5770 5768 5766 5764 5763 5762 5762 5762 5761 5760 5759 5758 5757 5757 5756 5755 5755 5754 5754 5753 5753 5752 5752 5752 5752 5752 5751 5751 5751 5751 5750 5750 5750 5749 5749 5749 5749 5748 5748 5748 5748 5748 5748 5748 5747 5747 5747 5747 5747 5747 5747 5747 5747 5747 5748 5748 5748 5748 5748 5748 5749 5749 5750 5750 5750 5751 5751 5750 5749
5803 5802 5801 5800 5799 5799 5798 5797 5795 5793 5791 5790 5788 5787 5786 5785 5784 5783 5782 5780 5778 5776 5775 5773 5772 5770 5769 5769 5767 5764 5763 5762 5760 5759 5758 5758 5757 5756 5755 5754 5753 5752 5752 5752 5751 5750 5750 5749 5749 5749 5748 5748 5748 5747 5747 5747 5747 5746 5746 5746 5746 5745 5745 5745 5744 5744 5744 5744 5744 5744 5743 5743 5743 5743 5743 5743 5743 5743 5743 5743 5744 5744 5744 5744 5744 5744 5744 5745 5745 5745 5746 5746 5747 5747 5748 5747 5746
5800 5799 5799 5798 5797 5796 5795 5794 5792 5790 5789 5787 5786 5784 5783 5782 5781 5779 5778 5776 5774 5772 5770 5769 5768 5767 5766 5765 5762 5761 5760 5759 5757 5756 5755 5754 5753 5752 5750 5749 5749 5748 5748 5747 5747 5746 5746 5745 5745 5745 5744 5744 5744 5743 5743 5743 5742 5742 5742 5742 5741 5741 5741 5741 5740 5740 5740 5740 5739 5739 5739 5739 5739 5739 5739 5739 5739 5739 5739 5739 5739 5739 5740 5740 5740 5740 5740 5740 5741 5741 5742 5742 5743 5743 5744 5743 5743
5798 5797 5796 5795 5794 5793 5792 5791 5789 5788 5786 5784 5783 5781 5780 5778 5776 5775 5773 5772 5770 5768 5766 5765 5764 5763 5762 5761 5758 5757 5757 5756 5754 5752 5751 5750 5748 5747 5746 5745 5745 5744 5744 5743 5742 5742 5741 5741 5740 5740 5740 5740 5739 5739 5738 5738 5738 5737 5737 5737 5737 5737 5736 5736 5736 5735 5735 5735 5735 5735 5735 5735 5735 5735 5734 5734 5734 5734 5734 5734 5735 5735 5735 5735 5736 5736 5736 5736 5736 5737 5737 5738 5738 5739 5739 5739 5739
5796 5795 5794 5793 5792 5790 5789 5788 5787 5786 5783 5780 5779 5777 5775 5773 5772 5771 5769 5768 5765 5763 5762 5761 5760 5759 5758 5757 5754 5753 5753 5751 5750 5748 5747 5745 5744 5743 5741 5741 5740 5740 5739 5739 5738 5737 5737 5736 5736 5736 5735 5735 5734 5734 5734 5733 5733 5733 5732 5732 5732 5732 5731 5731 5731 5730 5730 5730 5730 5730 5730 5730 5730 5730 5730 5730 5729 5729 5729 5729 5730 5730 5730 5730 5730 5731 5731 5731 5731 5732 5732 5733 5733 5734 5734 5735 5735
5793 5792 5791 5790 5789 5788 5786 5785 5784 5783 5779 5776 5775 5773 5772 5770 5768 5767 5765 5763 5760 5758 5758 5757 5756 5755 5754 5752 5750 5749 5747 5746 5745 5744 5743 5741 5740 5739 5738 5737 5736 5735 5735 5734 5733 5733 5732 5732 5731 5731 5730 5730 5729 5729 5729 5728 5728 5728 5728 5727 5727 5726 5726 5726 5725 5725 5725 5725 5725 5724 5724 5724 5724 5724 5724 5724 5724 5724 5724 5724 5724 5725 5725 5725 5725 5725 5726 5726 5726 5727 5727 5727 5728 5728 5729 5730 5730
5790 5789 5788 5787 5786 5784 5783 5782 5780 5779 5775 5772 5772 5770 5768 5766 5765 5763 5760 5759 5755 5753 5754 5753 5752 5750 5748 5747 5746 5744 5743 5741 5741 5740 5739 5738 5736 5735 5734 5733 5732 5731 5730 5729 5728 5728 5727 5727 5726 5725 5725 5724 5724 5723 5723 5723 5723 5722 5722 5721 5721 5721 5720 5720 5719 5719 5719 5719 5719 5719 5719 5719 5719 5719 5719 5719 5719 5719 5719 5719 5719 5719 5719 5719 5720 5720 5720 5720 5721 5721 5721 5722 5722 5722 5723 5724 5725
5787 5786 5785 5784 5783 5781 5780 5778 5776 5774 5771 5769 5769 5768 5765 5762 5761 5759 5756 5754 5751 5750 5751 5749 5748 5745 5743 5743 5743 5742 5740 5738 5738 5737 5736 5734 5733 5731 5730 5729 5728 5727 5726 5725 5724 5723 5722 5721 5721 5720 5719 5718 5717 5717 5717 5716 5716 5715 5715 5715 5714 5714 5714 5713 5713 5713 5713 5713 5713 5712 5712 5712 5712 5713 5713 5713 5713 5713 5713 5713 5713 5713 5713 5713 5714 5714 5714 5714 5715 5715 5715 5716 5716 5716 5717 5718 5719
5784 5783 5782 5781 5779 5778 5776 5774 5772 5771 5768 5766 5765 5764 5762 5759 5758 5756 5752 5751 5749 5748 5747 5745 5743 5741 5740 5740 5740 5739 5737 5735 5734 5733 5732 5731 5729 5728 5726 5725 5724 5722 5721 5720 5719 5718 5717 5716 5715 5714 5713 5712 5711 5710 5710 5709 5709 5708 5708 5707 5707 5707 5706 5706 5706 5706 5706 5706 5706 5706 5705 5705 5706 5706 5706 5706 5706 5706 5706 5706 5706 5706 5706 5707 5707 5707 5708 5708 5708 5709 5709 5709 5710 5710 5711 5712 5712
5782 5780 5779 5778 5776 5774 5772 5771 5769 5768 5765 5763 5762 5760 5758 5756 5754 5752 5749 5747 5747 5745 5744 5742 5739 5737 5737 5738 5737 5735 5733 5732 5730 5729 5728 5726 5725 5724 5722 5721 5719 5718 5716 5715 5713 5712 5711 5710 5709 5708 5707 5706 5705 5704 5703 5703 5702 5702 5701 5700 5700 5700 5699 5699 5699 5699 5698 5698 5698 5698 5698 5698 5698 5698 5698 5698 5699 5699 5699 5699 5699 5699 5700 5700 5700 5700 5701 5701 5702 5702 5703 5703 5703 5704 5705 5705 5705
5779 5778 5777 5776 5774 5771 5769 5768 5766 5764 5762 5760 5759 5756 5755 5753 5750 5749 5747 5744 5744 5743 5741 5739 5736 5734 5734 5734 5732 5730 5729 5728 5727 5725 5723 5721 5720 5719 5718 5716 5715 5713 5712 5710 5708 5706 5705 5703 5702 5702 5701 5700 5699 5698 5697 5696 5695 5695 5694 5693 5693 5693 5692 5692 5692 5692 5691 5691 5691 5691 5691 5691 5691 5691 5691 5691 5691 5691 5691 5692 5692 5692 5692 5693 5693 5693 5694 5694 5695 5695 5696 5696 5697 5698 5698 5698 5699
5777 5776 5775 5773 5771 5769 5767 5765 5763 5761 5759 5757 5755 5753 5751 5749 5747 5746 5744 5742 5741 5740 5738 5736 5733 5731 5730 5729 5727 5726 5725 5723 5722 5721 5719 5718 5716 5715 5713 5711 5710 5708 5706 5705 5703 5701 5700 5698 5697 5696 5695 5694 5692 5691 5690 5689 5688 5688 5687 5686 5686 5686 5686 5685 5685 5685 5684 5684 5684 5684 5684 5683 5683 5683 5683 5683 5683 5683 5683 5684 5684 5684 5685 5685 5686 5686 5687 5688 5688 5688 5689 5689 5689 5690 5691 5691 5692
5775 5774 5773 5771 5768 5766 5764 5762 5760 5758 5756 5754 5752 5751 5748 5745 5743 5742 5741 5739 5738 5736 5734 5733 5731 5729 5728 5727 5725 5722 5720 5719 5717 5716 5715 5713 5712 5710 5709 5707 5705 5703 5702 5699 5697 5696 5695 5694 5692 5691 5690 5688 5686 5685 5684 5682 5682 5681 5680 5679 5679 5679 5678 5678 5678 5677 5677 5677 5676 5676 5676 5676 5675 5675 5676 5676 5675 5676 5676 5676 5676 5677 5677 5678 5678 5679 5680 5681 5681 5681 5681 5681 5682 5683 5683 5684 5684
5774 5772 5770 5768 5766 5764 5762 5760 5758 5756 5753 5752 5751 5749 5746 5743 5741 5740 5738 5736 5735 5733 5732 5730 5727 5726 5725 5724 5722 5719 5717 5714 5712 5710 5708 5707 5706 5705 5703 5702 5700 5698 5696 5693 5692 5691 5690 5688 5687 5686 5685 5683 5681 5680 5678 5677 5676 5675 5673 5672 5672 5671 5671 5670 5670 5670 5670 5670 5669 5669 5668 5668 5668 5668 5668 5668 5668 5668 5668 5668 5669 5669 5670 5671 5671 5672 5673 5673 5674 5674 5674 5674 5675 5675 5676 5676 5677
5772 5771 5769 5767 5764 5762 5760 5758 5756 5754 5751 5750 5749 5747 5743 5741 5739 5737 5735 5733 5731 5729 5728 5726 5724 5722 5720 5718 5717 5715 5712 5710 5708 5705 5703 5701 5699 5698 5696 5695 5693 5691 5689 5687 5685 5684 5683 5681 5680 5679 5677 5676 5675 5674 5673 5672 5670 5668 5667 5666 5665 5664 5663 5663 5663 5662 5662 5662 5662 5662 5661 5660 5660 5660 5660 5660 5660 5660 5660 5661 5661 5662 5663 5663 5664 5665 5665 5666 5666 5666 5666 5667 5667 5668 5668 5669 5669
5771 5769 5767 5765 5763 5760 5758 5756 5754 5751 5749 5749 5748 5744 5741 5738 5736 5733 5731 5728 5726 5724 5723 5722 5719 5717 5715 5713 5711 5709 5707 5705 5703 5701 5698 5696 5694 5692 5691 5689 5687 5685 5683 5681 5679 5677 5675 5674 5673 5671 5670 5668 5667 5666 5666 5665 5663 5662 5662 5660 5659 5657 5656 5657 5656 5654 5654 5654 5654 5654 5653 5653 5652 5652 5652 5652 5652 5652 5653 5653 5653 5654 5655 5656 5656 5657 5657 5658 5658 5659 5659 5659 5659 5660 5660 5661 5661
5770 5768 5766 5763 5760 5758 5756 5754 5751 5748 5746 5746 5745 5742 5739 5735 5732 5730 5727 5725 5722 5720 5718 5717 5715 5713 5710 5708 5706 5704 5702 5700 5698 5695 5693 5691 5689 5687 5685 5684 5682 5680 5678 5676 5674 5671 5669 5667 5666 5664 5662 5661 5660 5659 5659 5658 5656 5655 5655 5654 5652 5650 5649 5649 5647 5646 5646 5646 5645 5646 5645 5645 5644 5644 5644 5644 5644 5644 5644 5645 5646 5646 5647 5648 5648 5649 5649 5649 5650 5651 5651 5651 5651 5651 5652 5653 5653
5768 5766 5763 5761 5758 5756 5753 5751 5748 5745 5743 5743 5743 5740 5736 5732 5729 5727 5724 5722 5719 5716 5714 5712 5710 5708 5706 5703 5701 5698 5696 5694 5692 5690 5688 5686 5683 5681 5679 5678 5676 5674 5672 5670 5668 5666 5664 5662 5659 5657 5655 5654 5652 5652 5651 5650 5648 5648 5647 5646 5645 5643 5642 5641 5639 5639 5639 5638 5638 5637 5636 5636 5636 5636 5636 5636 5636 5636 5637 5638 5638 5639 5639 5640 5640 5640 5640 5641 5642 5643 5643 5643 5643 5643 5644 5645 5645
5766 5763 5761 5759 5756 5753 5751 5748 5746 5743 5741 5740 5740 5738 5734 5730 5726 5723 5721 5718 5716 5713 5710 5708 5705 5703 5701 5699 5696 5694 5692 5689 5687 5685 5683 5681 5678 5675 5673 5671 5669 5667 5665 5663 5661 5659 5657 5655 5653 5651 5649 5647 5646 5645 5644 5642 5641 5640 5640 5638 5637 5636 5635 5633 5633 5632 5631 5631 5630 5629 5628 5628 5628 5628 5628 5628 5628 5629 5629 5630 5631 5631 5632 5631 5631 5632 5632 5633 5634 5635 5635 5635 5636 5636 5636 5637 5637
5764 5761 5759 5757 5754 5751 5749 5746 5743 5741 5738 5737 5737 5735 5732 5728 5724 5720 5718 5715 5712 5709 5706 5704 5701 5699 5696 5694 5692 5690 5687 5684 5682 5679 5676 5674 5672 5670 5668 5665 5663 5661 5659 5657 5655 5653 5651 5649 5646 5644 5643 5641 5639 5638 5637 5635 5634 5633 5632 5631 5630 5629 5627 5626 5626 5625 5624 5623 5622 5621 5621 5621 5620 5620 5620 5620 5620 5620 5621 5622 5623 5623 5623 5623 5623 5624 5624 5625 5627 5628 5628 5628 5628 5628 5629 5629 5629
5762 5759 5756 5754 5752 5749 5746 5744 5741 5738 5735 5733 5733 5732 5730 5726 5722 5718 5714 5712 5709 5706 5703 5700 5697 5694 5692 5689 5687 5684 5682 5679 5676 5673 5670 5668 5665 5663 5661 5659 5657 5655 5653 5651 5649 5646 5644 5642 5640 5638 5636 5634 5633 5631 5630 5628 5627 5626 5625 5623 5622 5621 5619 5618 5618 5617 5616 5615 5614 5614 5613 5613 5613 5612 5611 5611 5611 5611 5612 5613 5614 5615 5614 5614 5615 5616 5617 5618 5619 5620 5620 5620 5620 5620 5621 5621 5621
5761 5758 5755 5752 5748 5746 5744 5741 5738 5735 5732 5730 5728 5727 5726 5723 5719 5715 5711 5708 5704 5701 5698 5695 5692 5689 5686 5684 5681 5678 5675 5672 5669 5666 5664 5661 5658 5656 5654 5652 5650 5648 5646 5644 5642 5640 5638 5635 5633 5631 5629 5627 5626 5624 5622 5621 5620 5618 5617 5616 5614 5613 5612 5610 5610 5609 5608 5607 5606 5606 5606 5605 5605 5604 5603 5602 5602 5602 5603 5604 5605 5606 5606 5607 5607 5609 5610 5611 5612 5612 5612 5612 5612 5613 5613 5614 5614
5759 5757 5754 5751 5747 5744 5741 5738 5736 5733 5730 5727 5725 5722 5721 5719 5716 5712 5709 5704 5700 5697 5693 5690 5687 5683 5681 5678 5675 5671 5668 5665 5662 5659 5657 5654 5651 5649 5646 5644 5642 5640 5638 5637 5635 5633 5631 5629 5626 5624 5622 5620 5618 5617 5615 5613 5612 5611 5609 5608 5607 5606 5604 5602 5602 5601 5600 5600 5599 5598 5599 5598 5597 5596 5595 5594 5594 5594 5595 5596 5597 5598 5599 5599 5600 5601 5603 5603 5604 5604 5605 5605 5605 5605 5605 5606 5606
5756 5754 5752 5749 5746 5742 5739 5736 5733 5731 5728 5726 5723 5719 5717 5715 5712 5709 5705 5702 5698 5693 5690 5686 5683 5679 5675 5672 5669 5665 5662 5659 5655 5652 5650 5647 5644 5641 5639 5636 5634 5632 5630 5628 5626 5625 5623 5621 5619 5617 5615 5612 5610 5609 5607 5606 5604 5603 5601 5600 5599 5598 5597 5595 5594 5593 5592 5592 5591 5591 5591 5591 5590 5588 5588 5587 5587 5587 5588 5589 5590 5591 5591 5591 5592 5594 5595 5595 5596 5596 5597 5597 5597 5598 5598 5598 5598
5753 5751 5749 5746 5743 5740 5737 5733 5730 5727 5725 5722 5719 5716 5713 5711 5708 5705 5701 5698 5694 5690 5686 5682 5678 5675 5671 5667 5663 5660 5656 5652 5649 5646 5642 5639 5637 5634 5631 5628 5625 5623 5621 5619 5617 5615 5613 5612 5610 5608 5606 5604 5602 5601 5599 5597 5596 5595 5593 5592 5591 5590 5589 5587 5586 5585 5585 5584 5583 5583 5583 5583 5582 5581 5581 5580 5580 5580 5581 5582 5583 5584 5584 5583 5584 5586 5587 5588 5589 5589 5589 5589 5589 5589 5590 5590 5590
5752 5749 5746 5743 5739 5737 5734 5730 5727 5724 5721 5718 5716 5713 5710 5707 5704 5700 5697 5693 5690 5685 5681 5677 5673 5669 5665 5662 5658 5654 5650 5646 5643 5639 5635 5632 5629 5626 5623 5620 5617 5614 5612 5610 5608 5606 5604 5602 5601 5599 5597 5595 5594 5592 5590 5588 5587 5586 5585 5584 5583 5582 5580 5579 5578 5577 5577 5576 5576 5575 5575 5575 5574 5573 5573 5573 5573 5574 5574 5575 5575 5576 5576 5576 5576 5578 5579 5580 5581 5581 5581 5581 5581 5581 5582 5582 5582
5748 5745 5742 5740 5736 5732 5729 5726 5723 5720 5717 5714 5711 5709 5706 5703 5699 5696 5692 5688 5685 5680 5676 5672 5668 5663 5659 5656 5652 5648 5643 5640 5636 5632 5629 5625 5621 5618 5615 5612 5609 5606 5603 5601 5599 5597 5595 5593 5591 5589 5587 5585 5584 5582 5581 5579 5578 5576 5575 5575 5574 5573 5572 5571 5570 5569 5568 5568 5567 5567 5567 5567 5566 5566 5566 5565 5566 5566 5567 5567 5568 5569 5569 5568 5569 5570 5571 5572 5573 5572 5572 5573 5572 5572 5574 5575 5574
5744 5741 5738 5735 5733 5728 5725 5722 5718 5715 5713 5710 5706 5704 5701 5698 5694 5690 5687 5683 5678 5674 5670 5666 5661 5657 5653 5650 5646 5642 5637 5633 5629 5625 5621 5618 5614 5610 5607 5604 5601 5597 5594 5592 5589 5587 5585 5583 5581 5579 5577 5575 5574 5572 5570 5569 5568 5567 5565 5565 5564 5563 5563 5562 5561 5560 5560 5559 5559 5558 5558 5559 5558 5558 5558 5557 5558 5558 5559 5559 5559 5561 5561 5561 5562 5563 5564 5565 5565 5564 5563 5564 5565 5565 5566 5567 5567
5740 5737 5733 5731 5729 5726 5721 5718 5714 5710 5707 5705 5701 5699 5696 5692 5688 5684 5680 5676 5671 5667 5663 5659 5655 5651 5647 5643 5639 5635 5630 5626 5622 5618 5614 5610 5606 5602 5598 5595 5592 5588 5585 5582 5579 5577 5574 5572 5570 5568 5566 5564 5563 5561 5560 5558 5557 5556 5555 5555 5554 5554 5553 5552 5552 5551 5551 5550 5550 5549 5550 5550 5550 5550 5549 5549 5549 5549 5550 5551 5551 5552 5553 5553 5554 5555 5556 5556 5557 5557 5556 5557 5557 5557 5558 5559 5559
5735 5733 5730 5727 5725 5723 5719 5714 5710 5706 5702 5699 5696 5694 5690 5686 5682 5678 5673 5668 5663 5659 5654 5651 5647 5643 5640 5635 5631 5627 5622 5617 5613 5608 5604 5600 5596 5592 5588 5584 5581 5578 5575 5572 5569 5566 5563 5561 5558 5556 5555 5553 5551 5550 5548 5547 5546 5545 5545 5545 5545 5544 5543 5543 5542 5542 5542 5541 5541 5540 5541 5541 5542 5542 5541 5540 5540 5540 5541 5542 5543 5544 5545 5545 5546 5546 5547 5548 5549 5549 5549 5549 5550 5550 5550 5551 5552
5732 5729 5727 5724 5720 5719 5716 5711 5706 5701 5697 5693 5690 5688 5685 5680 5676 5672 5666 5661 5656 5651 5647 5643 5639 5635 5631 5627 5622 5617 5612 5607 5603 5598 5593 5589 5584 5580 5577 5573 5569 5566 5563 5560 5557 5554 5552 5549 5546 5544 5542 5540 5538 5537 5536 5535 5534 5534 5533 5534 5534 5534 5534 5533 5533 5533 5533 5533 5533 5532 5532 5533 5533 5533 5532 5531 5531 5531 5531 5532 5534 5535 5536 5537 5537 5538 5538 5539 5540 5541 5541 5541 5542 5542 5542 5544 5545
5729 5727 5723 5720 5716 5712 5710 5707 5702 5696 5690 5686 5682 5681 5679 5675 5670 5665 5659 5653 5647 5642 5637 5633 5629 5624 5620 5615 5610 5605 5600 5595 5590 5585 5581 5577 5572 5568 5564 5560 5557 5553 5550 5548 5545 5542 5539 5536 5534 5531 5529 5527 5525 5524 5523 5522 5522 5521 5521 5521 5522 5522 5522 5523 5523 5523 5523 5524 5524 5524 5524 5524 5524 5524 5523 5523 5523 5522 5522 5523 5525 5527 5528 5528 5528 5529 5530 5531 5531 5532 5532 5532 5533 5534 5535 5537 5538
5727 5724 5720 5716 5712 5708 5704 5701 5698 5693 5686 5681 5676 5673 5673 5670 5664 5658 5651 5644 5639 5633 5628 5623 5619 5614 5609 5603 5597 5591 5586 5581 5576 5572 5567 5563 5559 5554 5550 5545 5542 5538 5535 5533 5531 5528 5525 5522 5520 5517 5515 5513 5512 5511 5509 5508 5508 5508 5508 5508 5509 5509 5510 5510 5510 5511 5512 5513 5513 5514 5515 5515 5515 5515 5514 5514 5514 5514 5514 5515 5516 5518 5519 5520 5520 5521 5522 5522 5522 5523 5523 5523 5524 5526 5526 5527 5529
5724 5720 5716 5712 5709 5705 5701 5697 5694 5689 5682 5676 5669 5664 5664 5664 5658 5650 5643 5637 5632 5626 5620 5616 5610 5605 5599 5593 5587 5581 5575 5569 5563 5558 5553 5548 5543 5538 5534 5529 5524 5521 5517 5515 5513 5511 5509 5507 5504 5502 5500 5499 5497 5496 5495 5494 5494 5493 5493 5494 5495 5496 5497 5497 5497 5498 5499 5501 5502 5503 5504 5504 5505 5505 5505 5505 5504 5504 5505 5506 5507 5509 5510 5511 5511 5512 5513 5513 5514 5514 5515 5515 5516 5516 5516 5518 5521
5720 5716 5713 5709 5705 5701 5697 5692 5688 5685 5679 5672 5666 5659 5655 5657 5653 5644 5636 5630 5625 5619 5612 5608 5602 5596 5590 5583 5577 5571 5564 5558 5551 5545 5539 5532 5527 5521 5517 5513 5508 5503 5500 5497 5494 5492 5490 5488 5486 5485 5483 5482 5481 5480 5479 5479 5479 5478 5478 5479 5480 5482 5483 5484 5484 5485 5486 5487 5489 5490 5491 5492 5493 5494 5494 5494 5494 5494 5496 5497 5498 5499 5500 5502 5503 5504 5504 5505 5505 5506 5506 5506 5507 5507 5508 5509 5513
5716 5712 5709 5705 5701 5696 5692 5689 5684 5680 5675 5667 5662 5655 5648 5648 5645 5637 5630 5624 5617 5611 5605 5599 5593 5586 5580 5574 5566 5559 5552 5544 5537 5531 5524 5517 5510 5503 5498 5494 5490 5486 5483 5480 5477 5473 5470 5467 5466 5465 5464 5464 5464 5463 5462 5462 5462 5462 5463 5464 5465 5467 5469 5470 5471 5472 5473 5474 5476 5478 5479 5480 5481 5482 5483 5483 5484 5484 5485 5487 5488 5489 5490 5492 5494 5495 5496 5496 5497 5497 5498 5498 5499 5499 5500 5502 5503
5712 5709 5705 5701 5698 5693 5689 5686 5681 5677 5672 5663 5655 5649 5641 5641 5639 5629 5622 5617 5609 5603 5597 5590 5583 5576 5568 5561 5553 5545 5537 5529 5521 5513 5506 5499 5492 5485 5479 5474 5470 5467 5464 5462 5459 5455 5452 5449 5446 5445 5445 5445 5445 5445 5444 5444 5444 5445 5446 5448 5450 5452 5454 5456 5458 5459 5461 5462 5463 5465 5466 5468 5469 5470 5471 5472 5473 5473 5474 5476 5477 5478 5480 5481 5483 5485 5486 5487 5488 5489 5490 5490 5491 5491 5493 5493 5493
5708 5705 5702 5698 5694 5690 5686 5682 5677 5672 5668 5659 5650 5643 5633 5630 5630 5622 5612 5606 5599 5593 5586 5578 5570 5562 5554 5547 5539 5530 5522 5513 5504 5496 5489 5482 5475 5468 5462 5456 5452 5449 5446 5443 5440 5436 5433 5430 5428 5427 5427 5426 5426 5426 5426 5427 5428 5429 5430 5432 5434 5437 5439 5441 5444 5446 5448 5449 5451 5452 5454 5455 5457 5458 5459 5460 5461 5462 5463 5464 5466 5468 5469 5470 5473 5475 5476 5477 5478 5480 5481 5482 5482 5483 5484 5485 5485
5703 5700 5697 5694 5689 5685 5681 5676 5672 5667 5663 5655 5645 5638 5627 5617 5616 5611 5602 5594 5587 5580 5573 5565 5557 5548 5541 5533 5525 5516 5506 5497 5489 5481 5474 5467 5460 5453 5447 5441 5437 5433 5431 5426 5422 5417 5414 5412 5411 5410 5410 5410 5408 5408 5408 5409 5411 5413 5415 5417 5418 5421 5423 5425 5429 5432 5434 5436 5438 5439 5440 5441 5443 5444 5446 5447 5448 5449 5450 5452 5454 5456 5457 5459 5461 5463 5465 5467 5468 5469 5471 5472 5474 5474 5475 5476 5477
5698 5693 5690 5687 5683 5679 5673 5667 5662 5656 5653 5649 5637 5628 5620 5609 5603 5599 5591 5584 5576 5569 5560 5552 5544 5536 5528 5520 5511 5501 5492 5483 5474 5466 5458 5450 5443 5437 5432 5426 5421 5419 5416 5411 5407 5402 5399 5396 5395 5393 5394 5393 5391 5390 5391 5393 5394 5396 5398 5400 5402 5405 5407 5410 5413 5417 5420 5421 5424 5425 5427 5428 5430 5431 5433 5434 5435 5436 5437 5440 5441 5443 5445 5447 5449 5451 5453 5455 5456 5458 5460 5462 5464 5466 5466 5467 5469
5691 5686 5681 5677 5672 5668 5663 5655 5650 5646 5645 5644 5635 5623 5616 5608 5600 5593 5585 5577 5568 5559 5549 5539 5530 5521 5514 5506 5497 5488 5479 5469 5460 5450 5442 5434 5427 5421 5416 5411 5407 5404 5401 5398 5394 5391 5388 5386 5383 5380 5380 5378 5376 5375 5377 5379 5380 5381 5381 5383 5385 5388 5391 5394 5397 5401 5404 5406 5409 5412 5413 5415 5417 5419 5420 5422 5423 5424 5426 5428 5430 5431 5434 5436 5438 5440 5442 5443 5445 5446 5449 5452 5454 5456 5457 5458 5459
5685 5679 5673 5668 5662 5656 5651 5645 5640 5637 5636 5637 5632 5621 5612 5606 5598 5590 5580 5571 5561 5551 5541 5531 5520 5509 5499 5491 5482 5472 5463 5453 5443 5434 5427 5420 5414 5409 5405 5400 5397 5393 5390 5387 5385 5382 5380 5378 5375 5372 5370 5368 5366 5365 5365 5367 5367 5367 5367 5367 5368 5371 5374 5378 5381 5385 5389 5392 5395 5398 5400 5401 5403 5405 5406 5408 5410 5411 5414 5416 5418 5420 5423 5425 5427 5429 5431 5432 5434 5436 5438 5441 5444 5446 5447 5448 5450
5683 5677 5670 5664 5658 5650 5645 5638 5631 5624 5622 5623 5621 5613 5604 5595 5588 5580 5571 5562 5553 5544 5535 5524 5514 5504 5492 5480 5469 5458 5449 5440 5430 5423 5416 5410 5405 5400 5397 5394 5390 5386 5383 5380 5378 5375 5373 5372 5369 5366 5364 5362 5360 5358 5357 5358 5358 5357 5356 5355 5355 5357 5359 5362 5365 5370 5374 5377 5380 5383 5386 5388 5390 5392 5393 5394 5396 5397 5400 5403 5405 5408 5411 5413 5415 5417 5419 5420 5422 5424 5427 5430 5433 5435 5437 5439 5440
5679 5674 5668 5661 5655 5648 5642 5636 5628 5617 5611 5610 5608 5602 5596 5585 5575 5567 5559 5550 5542 5534 5525 5515 5505 5495 5483 5471 5460 5450 5439 5430 5421 5414 5408 5403 5398 5394 5391 5388 5385 5381 5377 5374 5372 5369 5367 5365 5363 5361 5359 5357 5355 5353 5351 5351 5350 5349 5348 5347 5347 5346 5347 5350 5353 5357 5360 5364 5367 5369 5372 5375 5377 5379 5381 5382 5383 5385 5387 5389 5391 5395 5397 5400 5402 5405 5406 5408 5410 5413 5415 5418 5422 5424 5427 5429 5430
5676 5670 5664 5656 5650 5643 5637 5632 5626 5615 5606 5602 5599 5593 5587 5575 5562 5553 5546 5537 5531 5524 5514 5503 5492 5481 5471 5460 5450 5440 5429 5419 5412 5405 5400 5396 5392 5389 5385 5382 5379 5375 5372 5370 5367 5364 5361 5359 5358 5355 5354 5352 5350 5348 5346 5345 5344 5343 5342 5342 5341 5340 5340 5342 5344 5346 5349 5351 5354 5357 5359 5362 5363 5366 5368 5370 5371 5373 5375 5377 5379 5382 5384 5386 5389 5392 5394 5396 5398 5400 5404 5407 5411 5413 5416 5418 5420
5671 5665 5658 5651 5643 5635 5627 5621 5615 5607 5597 5593 5591 5584 5576 5564 5550 5541 5533 5525 5518 5509 5498 5486 5477 5467 5457 5447 5438 5428 5418 5410 5404 5399 5395 5391 5388 5384 5381 5377 5374 5370 5367 5364 5362 5359 5356 5354 5352 5350 5349 5347 5345 5344 5342 5340 5339 5338 5337 5336 5335 5335 5335 5335 5335 5336 5338 5340 5343 5345 5348 5350 5352 5353 5355 5357 5359 5361 5364 5365 5368 5371 5373 5374 5377 5380 5382 5384 5386 5389 5392 5395 5399 5402 5405 5408 5410
5669 5661 5654 5646 5637 5629 5622 5614 5605 5596 5586 5579 5577 5576 5569 5555 5542 5531 5521 5511 5501 5491 5482 5472 5463 5454 5443 5434 5425 5416 5409 5403 5398 5394 5390 5387 5384 5380 5376 5373 5370 5366 5362 5360 5357 5354 5352 5350 5347 5345 5344 5342 5341 5339 5338 5336 5335 5334 5333 5332 5330 5329 5329 5329 5328 5328 5329 5330 5332 5334 5337 5339 5341 5342 5343 5345 5347 5349 5351 5353 5356 5359 5361 5364 5366 5368 5371 5373 5374 5377 5381 5384 5387 5390 5394 5397 5400
5666 5659 5653 5646 5637 5628 5622 5617 5608 5597 5585 5571 5561 5562 5560 5547 5533 5522 5511 5502 5491 5479 5471 5463 5453 5443 5433 5423 5415 5407 5401 5396 5392 5388 5385 5382 5379 5375 5372 5368 5365 5361 5358 5355 5352 5350 5347 5345 5343 5341 5339 5338 5336 5334 5333 5332 5331 5330 5328 5327 5326 5325 5324 5323 5323 5322 5322 5322 5323 5324 5326 5328 5330 5331 5332 5333 5335 5337 5339 5341 5344 5347 5350 5353 5355 5358 5360 5362 5363 5366 5369 5372 5375 5378 5382 5387 5389
5661 5654 5647 5641 5633 5624 5616 5613 5607 5596 5585 5569 5552 5548 5550 5539 5525 5515 5503 5494 5486 5473 5462 5453 5443 5434 5425 5416 5408 5401 5396 5392 5388 5384 5380 5376 5373 5371 5368 5365 5361 5357 5354 5351 5348 5345 5343 5341 5339 5337 5335 5333 5331 5329 5328 5327 5326 5325 5324 5323 5322 5321 5320 5319 5318 5318 5318 5317 5317 5317 5318 5319 5320 5321 5322 5323 5325 5326 5328 5330 5332 5336 5339 5341 5344 5347 5349 5350 5352 5355 5358 5360 5363 5366 5371 5375 5378
5656 5649 5642 5635 5627 5617 5607 5602 5599 5592 5582 5569 5551 5539 5539 5531 5517 5508 5498 5488 5480 5467 5455 5444 5435 5426 5418 5409 5403 5397 5392 5388 5384 5380 5375 5371 5367 5365 5363 5361 5357 5353 5349 5346 5344 5341 5339 5337 5334 5332 5330 5328 5327 5325 5323 5322 5321 5320 5319 5318 5317 5316 5315 5314 5314 5313 5313 5313 5312 5312 5312 5312 5313 5313 5313 5314 5316 5316 5318 5319 5322 5325 5327 5329 5332 5334 5337 5338 5341 5344 5346 5348 5350 5353 5358 5362 5366